Regional Weather Roundup
Issued by NWS

Home | Current Version | Previous Version | Text Only | Print | Product List | Glossary On
Versions: 1 2 3 4 5 6 7 8 9 10 11 12 13 14 15 16 17 18 19 20 21 22 23 24 25 26 27 28 29 30 31 32 33 34 35 36 37 38 39 40 41 42 43 44 45 46 47 48 49 50
000
ASUS43 KLOT 250808
RWRIL

ILLINOIS REGIONAL WEATHER ROUNDUP
NATIONAL WEATHER SERVICE CHICAGO/ROMEOVILLE IL
300 AM CDT SUN SEP 25 2016

NOTE: "FAIR" INDICATES FEW OR NO CLOUDS BELOW 12,000 FEET WITH NO
SIGNIFICANT WEATHER AND/OR OBSTRUCTIONS TO VISIBILITY.

* THESE STATIONS ARE NOT UNDER NWS QUALITY CONTROL. THEY ALSO MAY NOT
  REPORT WEATHER SUCH AS PRECIPITATION OR FOG.

ILZ001-002-007-009-015-016-024-250900-
NORTHWEST ILLINOIS

CITY           SKY/WX    TMP DP  RH WIND       PRES   REMARKS
MOLINE         CLOUDY    67  64  90 E7        30.03F FOG
STERLING*      PTCLDY    67  65  93 SE6       30.07F
SAVANNA*       PTCLDY    67  64  91 SE8       30.04F
$$

ILZ003-004-008-010-011-017-018-250900-
NORTH CENTRAL ILLINOIS

CITY           SKY/WX    TMP DP  RH WIND       PRES   REMARKS
ROCKFORD       PTCLDY    65  62  90 SE6       30.10F
FREEPORT*      CLOUDY    63  62  97 E3        30.09F FOG
ROCHELLE*      MOCLDY    66  64  93 SE8       30.09F
DE KALB*       PTCLDY    65  64  94 SE6       30.11F FOG
$$

ILZ005-006-012>014-019>023-250900-
NORTHEAST ILLINOIS

CITY           SKY/WX    TMP DP  RH WIND       PRES   REMARKS
CHICAGO-OHARE  CLEAR     65  62  90 SE8       30.10F
CHICAGO-MIDWAY PTCLDY    68  60  75 SE7       30.11F
AURORA         CLEAR     66  63  90 SE5       30.11S
LANSING*       CLEAR     65  61  88 SE6       30.13F
JOLIET*        MOCLDY    68  64  88 SE5       30.11S
WAUKEGAN       CLEAR     67  63  87 SE9       30.11F
DUPAGE AIRPORT MOCLDY    67  62  84 SE6       30.11S
KANKAKEE*      CLEAR     66  63  88 CALM      30.12S
WHEELING       CLEAR     65  62  90 CALM      30.12F
MORRIS*        PTCLDY    67  64  91 SE3       30.09F
ROMEOVILLE*    PTCLDY    66  64  93 SE6       30.11F
NORTHERLY ISL    N/A     67  60  78 SE10        N/A
$$

LMZ740>746-250900-
SOUTHERN LAKE MICHIGAN

STATION/POSITION SKY/WX   TEMP    WIND        PRES    VSBY  WAVE
                          AIR SEA DIR/SP/G                  HT/PER
                          (F)     (DEG/KT/KT) (MB)    (MI)  (FT/S)
SOUTHERN BUOY              68 72  130/ 17/ 19 1019.7F         3/ 5
WILMETTE HARBOR            68 66  170/ 12/ 16   N/A           3/ 4
HARRISON CRIB              70     150/ 15/ 17   N/A
BURNHAM HARBOR             67     140/  9/ 10   N/A
CALUMET HARBOR             68     140/  8/ 11 1019.8R
BURNS HARBOR               67     150/ 10/ 17 1020.7S
MICHIGAN CITY              65     110/ 11/ 13   N/A
MICHIGAN CITY 6N           66 69  140/ 12/ 14   N/A           1/ 2
ST. JOSEPH                 63 67  120/ 12/ 16 1020.6F         1
$$

ILZ025>027-034>036-040-047-049-050-058-095>099-250900-
WEST-CENTRAL ILLINOIS

CITY           SKY/WX    TMP DP  RH WIND       PRES   REMARKS
QUINCY         CLEAR     73  66  78 SE7       30.03S
GALESBURG*     CLOUDY    68  65  91 E5        30.04F
MACOMB*        CLEAR     65  64  97 SE6       30.05F FOG
JACKSONVILLE*  CLEAR     73  67  81 SE5       30.05F
PITTSFIELD*    CLEAR     70  67  92 SE5       30.05F
$$

ILZ028>032-037-038-041>044-048-051>054-059>061-250900-
CENTRAL ILLINOIS

CITY           SKY/WX    TMP DP  RH WIND       PRES   REMARKS
PONTIAC        CLEAR     68  67  98 SE6       30.10S
BLOOMINGTON    CLEAR     69  67  93 SE9       30.10F
DECATUR        CLEAR     67  64  90 E7        30.08F FOG
PEORIA         CLEAR     72  68  87 SE7       30.06F
LACON*         CLEAR     65  63  94 CALM      30.06F FOG
LINCOLN*       CLEAR     70  66  88 CALM      30.07F
SPRINGFIELD    CLEAR     69  64  84 E3        30.06F
TAYLORVILLE    CLEAR     68  65  90 S5        30.07F
$$

ILZ033-039-045-046-055>057-062-063-250900-
EAST-CENTRAL ILLINOIS

CITY           SKY/WX    TMP DP  RH WIND       PRES   REMARKS
CHAMPAIGN      CLEAR     67  65  93 E6        30.10F FOG
RANTOUL*       CLEAR     67  66  94 E3        30.11S FOG
MATTOON        CLEAR     70  67  90 SE6       30.08F
PARIS*         CLEAR     67  67  98 CALM      30.11S FOG
$$

ILZ079-100>102-250900-
SOUTHWEST ILLINOIS

CITY           SKY/WX    TMP DP  RH WIND       PRES   REMARKS
ALTON          CLEAR     66  65  97 CALM      30.06S FOG
BELLEVILLE     CLEAR     67  67 100 CALM      30.04F FOG
CAHOKIA*       CLEAR     69  66  90 CALM      30.05S FOG
SPARTA*        CLEAR     70  69  95 SE3       30.07S
$$

ILZ064>066-069>071-074>076-080>082-084>086-088>090-092>094-250900-
SOUTH-CENTRAL ILLINOIS

CITY           SKY/WX    TMP DP  RH WIND       PRES   REMARKS
CARBONDALE     FOG       67  67 100 CALM      30.06F VSB 1/4
CAIRO*         PTCLDY    68  68  99 CALM      30.06S
EFFINGHAM*     CLEAR     68  68 100 CALM      30.09F FOG
MARION         CLEAR     73  72  94 CALM      30.07F
MT. VERNON     PTCLDY    64  61  88 CALM      30.08S
CENTRALIA*     PTCLDY    67  67 100 CALM      30.07S
SALEM*         CLEAR     72  66  82 CALM      30.08S
METROPOLIS*    CLEAR     68  68  98 CALM      30.07F FOG
$$

ILZ067-068-072-073-078-083-087-091-250900-
SOUTHEAST ILLINOIS

CITY           SKY/WX    TMP DP  RH WIND       PRES   REMARKS
LAWRENCEVILLE  CLEAR     68  65  90 N3        30.09S FOG
FLORA*         CLEAR     68  65  93 CALM      30.08S
FAIRFIELD*       N/A     70  66  88 CALM      30.06F
HARRISBURG*    CLEAR     67  67  99 CALM      30.07F FOG
ROBINSON*      FOG       62  62 100 CALM      30.10F VSB 1/4
CARMI*         CLEAR     65  65 100 CALM      30.07S
$$

ABBREVIATIONS USED IN REMARKS
   TC - TEMPERATURE IN CELSIUS
  WCI - WIND CHILL INDEX
   HX - HEAT INDEX
  VSB - VISIBILITY
$$





USA.gov is the U.S. government's official web portal to all federal, state and local government web resources and services.